Location: Unspecified
(49.2170°N, 0.0000°E)
Time: 10:04:24
(UTC+00:00)

Vanguard 1 Rocket - Visible Passes

Search period start: 19 June 2019 00:00
Search period end: 29 June 2019 00:00
Orbit: 652 x 4224 km, 34.3° (Epoch: 18 June)

Date Brightness Start Highest point End Pass type
(mag) Time Alt. Az. Time Alt. Az. Time Alt. Az.
19 Jun 8.9 21:15:53 10° WSW 21:21:59 22° SSW 21:25:52 12° SSE visible
20 Jun 9.2 22:32:34 10° SW 22:34:52 12° SSW 22:35:51 11° SSW visible
21 Jun 9.0 21:18:20 10° WSW 21:24:30 21° SSW 21:28:33 11° SSE visible
23 Jun 9.2 21:20:55 10° WSW 21:26:55 19° SSW 21:31:13 10° SSE visible
25 Jun 9.4 21:23:39 10° WSW 21:29:14 17° SW 21:33:22 10° S visible
27 Jun 9.6 21:26:39 10° WSW 21:31:26 14° SW 21:35:09 10° S visible
